Dewpoint
-10 -10 -9 -9 -8 -8 -8 -8 -8 -9 -10 -12 -14 -15 -16 -16 -16 -18 -20 -26 -33 -38 -37 -36 -35 -35 -34 -34 -34 -34 -34 -34 -34 -34 -34 -34 -34 -34 -33 -33 -33 -32
-10 -10 -9 -9 -8 -8 -8 -8 -8 -8 -9 -11 -13 -15 -16 -16 -16 -17 -20 -26 -34 -38 -37 -36 -35 -34 -34 -33 -34 -33 -33 -33 -33 -33 -33 -33 -33 -33 -33 -33 -33 -32
-10 -10 -9 -9 -9 -8 -8 -8 -8 -8 -9 -11 -13 -15 -16 -16 -16 -17 -20 -26 -35 -38 -36 -35 -34 -34 -34 -33 -33 -33 -33 -33 -33 -33 -33 -33 -33 -33 -33 -33 -33 -32
-10 -10 -9 -9 -9 -8 -8 -8 -8 -8 -9 -11 -13 -15 -16 -16 -16 -17 -20 -28 -36 -37 -36 -35 -34 -34 -33 -33 -33 -33 -33 -32 -32 -32 -32 -32 -32 -32 -32 -32 -32 -32
-10 -9 -9 -9 -8 -8 -8 -8 -8 -9 -9 -11 -13 -15 -16 -16 -17 -18 -21 -30 -37 -36 -35 -34 -34 -33 -33 -33 -33 -33 -33 -32 -32 -32 -31 -31 -31 -31 -32 -32 -32 -32
-10 -9 -9 -9 -8 -8 -8 -8 -8 -9 -10 -11 -13 -15 -16 -16 -17 -18 -24 -33 -38 -36 -35 -34 -33 -33 -33 -33 -33 -33 -33 -32 -32 -31 -31 -30 -31 -30 -31 -31 -31 -31
-9 -9 -9 -8 -8 -8 -8 -8 -8 -9 -10 -11 -14 -15 -16 -17 -17 -20 -27 -36 -37 -35 -34 -34 -33 -33 -33 -33 -33 -33 -33 -32 -31 -31 -30 -30 -30 -30 -30 -31 -31 -31
-9 -8 -8 -8 -8 -8 -8 -8 -9 -10 -10 -12 -14 -15 -16 -17 -18 -22 -31 -37 -36 -35 -34 -33 -34 -33 -33 -33 -33 -33 -33 -32 -31 -30 -30 -30 -30 -29 -30 -30 -30 -30
-8 -8 -8 -7 -8 -8 -8 -9 -10 -10 -11 -13 -15 -16 -17 -17 -19 -25 -35 -36 -36 -35 -34 -34 -33 -33 -33 -33 -34 -33 -33 -32 -31 -30 -30 -29 -29 -29 -29 -30 -30 -30
-8 -7 -8 -8 -9 -9 -10 -10 -10 -11 -12 -14 -15 -16 -17 -18 -22 -30 -37 -36 -35 -34 -33 -34 -33 -34 -34 -33 -34 -33 -33 -32 -31 -30 -30 -29 -29 -28 -29 -29 -29 -30
-8 -8 -9 -10 -11 -11 -11 -11 -11 -11 -13 -14 -16 -17 -17 -19 -27 -35 -37 -36 -36 -34 -34 -34 -33 -34 -33 -34 -34 -33 -33 -32 -31 -30 -30 -29 -29 -29 -29 -29 -29 -30
-9 -10 -12 -13 -13 -13 -12 -12 -11 -12 -14 -15 -16 -17 -18 -24 -32 -38 -36 -36 -35 -34 -33 -33 -33 -34 -34 -34 -34 -33 -32 -32 -31 -30 -30 -29 -29 -29 -30 -30 -30 -30
-12 -13 -14 -14 -14 -13 -12 -12 -12 -13 -15 -16 -17 -18 -21 -29 -37 -37 -36 -36 -35 -34 -34 -33 -33 -34 -34 -34 -34 -33 -32 -31 -30 -30 -30 -29 -30 -30 -30 -30 -30 -30
-14 -14 -14 -14 -14 -13 -12 -12 -13 -15 -16 -17 -17 -20 -26 -35 -37 -36 -36 -35 -34 -34 -33 -33 -34 -34 -34 -34 -34 -33 -32 -31 -30 -30 -30 -29 -29 -29 -29 -29 -28 -28
-14 -14 -15 -14 -14 -13 -12 -13 -14 -16 -16 -17 -19 -24 -32 -37 -36 -36 -36 -35 -34 -34 -33 -33 -34 -34 -34 -34 -33 -32 -31 -30 -29 -29 -29 -29 -28 -27 -27 -26 -26 -25
-14 -15 -15 -14 -14 -13 -14 -15 -16 -16 -17 -18 -22 -30 -37 -37 -36 -36 -35 -35 -34 -34 -34 -34 -34 -34 -34 -33 -32 -31 -29 -29 -28 -28 -26 -25 -25 -24 -24 -24 -24 -24
-14 -15 -15 -14 -14 -14 -15 -16 -16 -17 -18 -21 -28 -36 -37 -36 -36 -35 -35 -35 -35 -34 -34 -34 -34 -34 -34 -33 -31 -29 -28 -27 -26 -24 -23 -23 -23 -23 -23 -23 -24 -24
-15 -15 -15 -15 -15 -15 -16 -16 -17 -18 -21 -27 -34 -37 -36 -36 -36 -35 -35 -35 -34 -34 -34 -34 -34 -34 -33 -31 -29 -28 -27 -26 -24 -23 -23 -23 -23 -23 -23 -23 -23 -24
-15 -15 -15 -15 -15 -16 -16 -17 -18 -21 -26 -33 -37 -36 -36 -36 -35 -35 -35 -35 -34 -35 -34 -34 -35 -34 -32 -29 -27 -26 -26 -25 -23 -23 -23 -23 -23 -23 -23 -23 -23 -24
-15 -15 -15 -15 -16 -16 -17 -18 -21 -26 -34 -37 -36 -36 -36 -36 -35 -35 -35 -35 -35 -35 -34 -34 -34 -32 -30 -27 -26 -25 -24 -22 -22 -22 -22 -22 -22 -22 -23 -23 -23 -23
-15 -15 -16 -16 -16 -17 -18 -22 -27 -33 -37 -36 -36 -36 -35 -35 -35 -35 -35 -35 -35 -35 -34 -34 -33 -30 -27 -26 -25 -25 -24 -22 -22 -22 -22 -22 -23 -23 -23 -23 -23 -24
-15 -16 -16 -16 -17 -19 -22 -28 -33 -35 -36 -36 -36 -36 -35 -35 -35 -35 -35 -35 -34 -35 -34 -32 -30 -27 -26 -25 -25 -24 -24 -23 -23 -23 -23 -23 -24 -24 -24 -24 -24 -24
-16 -16 -16 -17 -20 -24 -29 -33 -35 -35 -36 -36 -36 -36 -35 -35 -35 -34 -35 -35 -34 -34 -32 -30 -28 -26 -25 -25 -25 -24 -24 -23 -23 -23 -23 -24 -24 -24 -24 -24 -24 -24
-16 -17 -18 -21 -25 -30 -32 -34 -35 -36 -37 -36 -35 -35 -35 -35 -35 -34 -35 -34 -34 -32 -30 -27 -27 -26 -26 -25 -25 -24 -23 -23 -23 -23 -23 -24 -24 -24 -24 -24 -24 -25
-17 -20 -23 -27 -30 -32 -33 -35 -36 -36 -36 -36 -35 -35 -35 -35 -35 -34 -34 -34 -32 -29 -27 -26 -27 -27 -26 -25 -25 -24 -23 -23 -23 -23 -24 -24 -24 -25 -25 -25 -25 -25
-21 -24 -28 -30 -31 -33 -34 -35 -36 -36 -36 -35 -35 -35 -35 -35 -34 -34 -34 -32 -29 -28 -27 -26 -26 -27 -27 -26 -25 -24 -23 -23 -23 -23 -24 -24 -25 -25 -25 -25 -25 -26
Wind_Speed
45 45 45 45 44 44 42 41 39 38 37 36 34 33 32 31 31 30 31 31 31 30 28 27 27 27 28 28 28 28 28 28 28 29 29 29 29 29 29 29 28 28
46 46 46 46 46 45 44 42 41 39 38 36 36 34 33 32 32 31 32 32 31 30 29 28 27 27 28 28 28 28 29 29 29 29 29 29 29 29 29 29 29 28
47 47 47 47 47 46 45 43 42 40 38 37 37 35 33 33 33 33 33 32 32 31 29 28 28 28 28 28 29 29 29 29 29 29 29 30 30 30 30 29 29 28
47 47 47 47 47 46 45 44 42 41 39 39 38 35 34 34 34 34 33 33 32 31 29 28 28 28 28 29 29 29 30 30 30 29 29 30 30 30 30 29 29 29
48 47 47 47 47 46 45 44 43 42 40 40 38 36 35 35 34 34 34 33 32 31 29 28 28 28 28 29 29 30 30 30 30 29 30 31 31 31 30 29 30 29
49 48 47 47 46 45 45 44 43 41 41 40 38 36 35 35 35 35 34 33 32 31 30 29 29 29 29 29 30 30 31 31 30 30 30 32 32 32 31 30 30 30
49 48 47 46 45 44 44 43 42 41 41 39 38 36 35 35 35 35 34 33 32 31 30 29 29 29 30 30 30 31 31 31 31 30 31 32 33 33 32 31 30 30
48 46 45 44 43 43 43 42 41 41 40 39 38 36 35 35 35 35 34 33 32 31 30 30 30 30 30 31 31 32 32 31 31 31 32 33 33 33 32 31 31 31
45 43 42 41 41 41 41 41 40 40 39 38 37 36 35 36 36 35 34 33 32 32 31 30 31 31 31 32 32 33 33 32 31 31 32 33 34 34 33 31 31 32
42 40 39 40 40 40 40 40 39 39 38 37 36 36 36 36 36 35 34 33 33 32 31 31 31 32 32 33 33 33 33 32 32 32 33 34 35 34 33 32 32 32
38 38 38 39 39 39 39 38 38 38 37 36 36 36 36 36 36 35 34 33 33 32 31 31 32 32 33 34 34 34 33 33 32 33 34 34 35 35 34 33 33 33
36 36 37 37 38 38 37 37 36 36 36 35 36 36 36 36 35 35 34 33 33 32 32 32 32 33 33 34 34 34 34 34 34 34 35 36 36 36 35 34 34 34
35 35 36 36 37 37 35 35 35 35 35 35 36 36 36 36 35 35 34 33 32 32 32 33 33 33 34 34 35 34 34 34 34 35 36 36 37 37 36 35 35 34
34 35 35 35 35 34 33 34 34 34 35 35 36 36 36 36 35 34 33 32 32 32 32 33 33 34 34 34 34 34 34 34 35 35 36 37 37 37 35 34 34 33
34 34 34 34 33 33 33 33 34 34 35 35 35 36 35 34 33 32 32 32 32 32 32 33 33 34 34 35 34 34 34 34 35 35 36 36 36 35 33 32 32 32
34 33 33 32 32 32 32 33 33 34 35 35 35 35 34 33 32 31 31 32 32 32 32 33 34 35 35 34 34 34 34 34 35 34 34 34 34 34 33 33 34 34
32 32 31 31 31 31 32 33 33 34 34 34 34 34 33 31 31 31 31 31 31 32 33 34 35 35 35 33 33 32 31 32 33 34 34 36 37 37 36 36 37 37
30 30 30 30 30 31 32 32 33 33 33 34 34 32 31 30 30 31 31 30 31 33 34 35 35 34 34 33 33 32 30 29 30 32 35 37 38 38 38 37 37 38
29 29 29 29 30 31 31 32 32 33 33 33 31 30 29 30 30 30 30 30 31 34 35 35 35 34 33 33 32 32 30 28 29 31 34 36 37 38 38 37 37 37
28 28 28 29 30 30 30 31 31 32 32 30 29 29 29 29 29 29 30 31 32 34 35 35 34 33 33 32 32 31 30 27 28 30 33 35 37 37 37 37 37 37
28 28 28 28 29 29 30 31 31 31 30 29 28 28 28 29 29 30 31 32 32 33 34 35 34 32 31 31 31 31 29 27 28 31 34 36 37 38 38 39 39 39
27 27 27 27 28 29 30 30 30 29 28 27 27 28 28 29 30 31 31 31 32 32 34 35 33 31 30 30 30 30 29 29 31 33 35 37 38 38 39 39 39 39
26 25 26 27 27 29 30 30 29 28 27 26 27 28 29 30 31 31 31 31 32 32 33 34 32 30 29 29 30 30 29 30 32 33 35 36 36 36 36 37 37 37
24 24 25 27 28 30 29 28 27 26 26 26 28 29 30 30 30 30 30 31 31 31 31 32 32 30 29 29 29 29 29 30 32 33 35 36 35 35 35 37 37 37
23 25 26 28 29 29 27 27 26 26 26 27 28 29 30 30 30 31 31 30 30 30 30 31 31 30 28 28 29 29 29 29 31 33 35 35 35 35 35 35 36 35
24 26 27 28 28 27 26 26 26 26 26 27 28 28 29 30 30 30 31 30 29 30 30 30 30 29 28 28 28 29 28 29 30 32 34 34 33 33 33 34 35 34
Wind_Direction
261 263 264 266 267 268 269 269 271 272 274 277 279 282 285 288 291 295 298 301 300 299 298 297 297 297 296 296 296 295 295 295 295 295 293 291 291 291 290 291 290 288
261 263 264 265 266 267 268 268 270 271 273 275 278 280 283 287 289 293 296 298 298 296 295 295 295 295 294 295 294 294 294 294 293 293 291 289 289 289 288 289 288 286
262 263 264 265 267 267 268 268 268 269 271 273 275 279 282 285 288 291 294 296 295 293 292 292 292 292 292 292 293 292 292 292 292 291 288 287 288 287 287 288 286 284
262 263 264 266 267 267 266 266 265 266 268 271 274 277 280 282 286 289 292 293 292 290 289 289 289 289 290 291 291 291 291 290 289 288 286 286 286 286 286 286 284 282
262 263 264 265 266 266 264 263 264 265 266 269 273 275 277 280 284 287 290 291 289 288 287 287 287 288 289 290 290 289 289 289 288 286 285 285 287 287 286 285 283 280
263 263 263 264 265 264 263 263 263 264 265 268 271 273 276 278 282 286 288 288 287 285 285 285 286 287 288 288 288 288 288 287 286 285 284 285 286 286 286 284 282 280
264 264 264 264 264 264 263 262 262 262 264 267 269 272 274 277 281 285 286 286 284 282 283 284 285 286 287 287 287 287 287 285 284 283 282 284 285 285 285 285 282 280
264 264 264 263 263 262 262 261 260 261 263 266 268 271 273 277 281 284 285 284 282 281 282 283 284 285 286 286 286 287 286 284 282 281 281 282 283 283 284 284 282 280
263 263 262 261 261 261 261 260 259 260 262 265 268 271 273 277 281 283 283 282 280 281 281 282 284 284 285 285 286 286 285 283 281 280 280 281 281 282 283 283 281 279
262 260 260 260 260 260 260 259 258 259 262 265 267 269 272 277 281 282 281 280 279 280 280 281 282 283 284 285 286 286 284 282 281 279 279 280 280 282 283 282 281 279
259 258 259 260 261 261 259 258 257 259 261 264 266 269 273 277 280 280 279 278 278 279 280 280 281 282 284 285 286 286 284 282 281 280 280 280 280 281 282 282 281 280
257 258 260 262 262 260 259 257 257 259 261 264 266 269 274 278 279 279 278 278 278 279 279 279 280 282 283 285 285 284 283 282 281 281 281 281 281 282 283 282 282 282
258 261 263 263 261 260 258 257 257 259 261 263 266 270 275 279 279 278 277 278 278 277 277 278 280 281 283 284 285 284 283 283 282 282 282 282 282 283 284 283 283 282
262 263 263 262 259 257 256 256 257 259 261 264 267 272 277 279 278 277 277 276 276 276 277 279 280 281 283 284 285 284 283 283 283 283 283 283 284 284 283 283 281 280
264 263 261 259 256 254 254 255 257 259 261 265 270 275 278 277 276 276 276 276 276 277 278 280 281 283 285 285 285 285 285 285 284 284 284 284 284 284 283 281 280 279
264 261 258 256 254 254 255 256 257 260 263 268 273 276 277 276 276 276 276 277 278 279 280 281 282 284 286 286 286 287 287 286 287 288 288 287 286 285 283 281 280 279
261 258 256 254 254 254 255 256 258 262 266 271 275 276 276 276 276 276 277 278 280 280 281 282 283 285 286 286 286 286 285 285 288 291 290 289 287 286 284 284 283 282
258 256 255 254 254 254 256 257 260 264 270 274 275 276 277 276 276 277 278 280 281 281 281 282 283 285 285 286 286 286 284 283 283 283 283 283 283 283 282 282 281 281
257 256 254 254 255 256 257 259 264 268 273 276 277 277 276 276 277 279 279 280 280 281 281 283 284 285 285 285 285 286 286 284 280 278 277 277 278 278 278 277 277 277
257 255 254 255 255 257 260 263 268 273 276 278 278 277 277 278 279 279 279 280 280 281 283 283 284 285 285 285 286 287 287 285 281 278 276 275 274 274 274 274 274 274
257 255 255 255 257 260 264 268 272 276 278 280 279 278 279 279 279 279 279 280 281 282 283 283 284 285 286 287 288 288 289 285 279 275 273 272 272 271 271 272 272 272
257 256 256 257 260 264 268 272 276 279 281 281 279 279 279 278 278 279 280 281 282 282 282 283 286 287 287 288 289 289 288 284 279 276 274 273 272 271 271 272 271 271
258 257 258 261 264 268 272 277 280 281 281 280 278 278 278 277 278 279 280 281 282 282 283 285 288 289 289 289 290 289 289 286 283 281 279 278 277 276 276 275 274 274
258 258 261 264 268 272 277 280 282 281 280 278 277 277 277 278 279 279 280 281 283 284 285 287 289 291 292 292 291 291 289 286 284 282 279 277 276 275 274 275 275 275
258 260 264 268 273 277 281 282 281 280 278 277 276 277 278 279 279 280 282 283 284 286 287 288 291 293 294 294 293 292 289 286 283 281 279 278 277 277 276 276 276 275
260 264 269 274 278 281 282 281 280 279 278 277 277 278 279 279 280 282 283 285 286 287 288 289 292 294 296 296 294 292 289 286 282 279 278 278 277 277 277 278 279 281
Height
1503 1503 1503 1503 1503 1503 1504 1504 1504 1504 1503 1503 1503 1503 1503 1502 1502 1501 1500 1499 1498 1497 1496 1495 1494 1494 1493 1492 1492 1490 1489 1489 1488 1487 1487 1486 1485 1485 1484 1483 1483 1482
1498 1498 1498 1498 1498 1498 1498 1499 1499 1499 1499 1499 1498 1498 1498 1498 1497 1496 1496 1495 1494 1493 1492 1491 1490 1490 1489 1488 1487 1486 1486 1485 1484 1484 1483 1482 1481 1481 1480 1480 1479 1479
1492 1492 1492 1492 1492 1493 1493 1494 1494 1494 1494 1494 1494 1494 1493 1493 1493 1492 1491 1491 1490 1489 1488 1487 1486 1486 1485 1484 1484 1483 1482 1481 1480 1480 1479 1478 1478 1477 1476 1476 1475 1475
1486 1486 1486 1487 1487 1488 1489 1489 1489 1489 1489 1489 1489 1489 1489 1489 1488 1488 1487 1486 1485 1485 1484 1483 1482 1482 1481 1480 1480 1479 1478 1477 1476 1476 1475 1474 1474 1473 1473 1472 1471 1471
1480 1481 1481 1481 1482 1483 1483 1483 1484 1484 1484 1484 1484 1485 1484 1484 1484 1483 1483 1482 1481 1480 1479 1478 1478 1477 1477 1476 1475 1474 1474 1473 1472 1472 1470 1469 1469 1469 1468 1468 1467 1467
1474 1475 1475 1476 1476 1477 1477 1478 1479 1479 1479 1480 1480 1480 1480 1479 1479 1479 1478 1477 1476 1475 1475 1474 1473 1473 1472 1472 1471 1470 1469 1468 1468 1467 1466 1465 1465 1464 1464 1464 1463 1462
1468 1469 1470 1471 1471 1471 1472 1473 1474 1474 1474 1475 1475 1475 1475 1475 1474 1474 1473 1472 1472 1471 1470 1469 1469 1468 1468 1467 1467 1466 1465 1464 1463 1463 1462 1461 1461 1460 1459 1459 1458 1457
1463 1464 1464 1465 1466 1466 1467 1468 1468 1469 1470 1470 1470 1470 1470 1470 1469 1469 1468 1467 1467 1466 1465 1465 1464 1464 1463 1463 1462 1461 1460 1459 1459 1458 1457 1457 1456 1455 1455 1454 1453 1453
1457 1458 1459 1459 1460 1461 1462 1463 1463 1464 1465 1465 1465 1465 1465 1465 1465 1464 1463 1462 1462 1461 1460 1460 1459 1459 1459 1458 1457 1456 1455 1455 1454 1454 1453 1452 1451 1450 1450 1450 1449 1448
1452 1453 1454 1454 1455 1456 1457 1458 1458 1459 1460 1460 1460 1460 1460 1460 1460 1459 1458 1457 1457 1456 1456 1455 1455 1455 1454 1453 1453 1452 1451 1450 1449 1449 1448 1447 1446 1445 1445 1445 1444 1443
1447 1447 1448 1449 1450 1451 1452 1453 1454 1455 1455 1455 1455 1455 1455 1455 1455 1454 1453 1453 1452 1451 1451 1451 1450 1450 1449 1448 1448 1447 1446 1445 1444 1444 1443 1442 1441 1440 1440 1440 1439 1438
1442 1443 1443 1445 1446 1446 1447 1448 1449 1450 1450 1450 1450 1450 1450 1450 1450 1449 1448 1448 1447 1447 1446 1446 1445 1445 1444 1444 1443 1442 1441 1440 1439 1438 1437 1437 1436 1435 1435 1434 1434 1433
1437 1438 1439 1440 1441 1442 1443 1444 1445 1445 1445 1445 1446 1446 1446 1445 1445 1444 1443 1443 1442 1442 1441 1441 1440 1440 1439 1439 1438 1437 1436 1435 1434 1433 1432 1431 1430 1430 1429 1429 1428 1428
1433 1435 1435 1436 1437 1437 1438 1439 1440 1440 1440 1441 1441 1441 1440 1440 1440 1439 1438 1438 1437 1437 1436 1436 1435 1435 1434 1434 1433 1432 1431 1430 1429 1428 1427 1426 1425 1424 1424 1423 1423 1422
1430 1430 1431 1431 1432 1433 1434 1434 1435 1436 1436 1436 1436 1436 1435 1435 1434 1434 1433 1432 1432 1432 1431 1431 1430 1430 1429 1429 1428 1427 1426 1425 1424 1423 1422 1421 1420 1419 1418 1418 1418 1417
1425 1425 1426 1426 1427 1428 1429 1430 1431 1431 1432 1432 1431 1431 1430 1430 1429 1428 1428 1427 1427 1426 1426 1425 1425 1425 1425 1424 1423 1422 1421 1419 1418 1417 1416 1415 1414 1413 1413 1412 1412 1412
1420 1421 1421 1422 1423 1424 1425 1426 1426 1427 1427 1427 1426 1426 1425 1425 1424 1423 1423 1422 1422 1421 1421 1420 1420 1420 1420 1419 1418 1418 1416 1415 1413 1412 1410 1409 1407 1407 1406 1406 1406 1405
1416 1416 1417 1418 1419 1420 1421 1422 1422 1422 1422 1421 1421 1420 1420 1419 1419 1418 1418 1417 1417 1416 1416 1415 1415 1415 1415 1414 1414 1413 1413 1412 1410 1408 1406 1404 1402 1401 1400 1400 1399 1398
1412 1412 1413 1414 1415 1416 1416 1417 1417 1417 1417 1416 1416 1415 1415 1414 1413 1413 1413 1413 1412 1411 1411 1410 1410 1410 1410 1409 1409 1408 1408 1408 1406 1404 1402 1400 1399 1397 1396 1395 1395 1394
1408 1408 1409 1410 1411 1412 1412 1412 1412 1412 1412 1411 1410 1410 1409 1409 1409 1408 1408 1408 1408 1407 1406 1405 1405 1405 1405 1405 1404 1403 1403 1403 1402 1399 1397 1395 1394 1393 1392 1391 1390 1389
1404 1405 1405 1406 1407 1407 1407 1407 1407 1407 1407 1406 1405 1405 1404 1404 1404 1403 1403 1403 1403 1402 1401 1399 1400 1401 1400 1399 1399 1398 1398 1397 1396 1393 1391 1390 1389 1388 1386 1385 1385 1384
1400 1401 1402 1402 1402 1402 1402 1402 1402 1402 1402 1401 1400 1400 1399 1399 1399 1399 1399 1398 1398 1397 1396 1394 1395 1396 1395 1394 1394 1393 1392 1391 1389 1387 1385 1383 1382 1382 1381 1380 1379 1379
1397 1397 1398 1398 1398 1398 1398 1398 1398 1397 1397 1397 1396 1395 1395 1394 1394 1394 1394 1394 1393 1392 1391 1390 1390 1391 1390 1389 1389 1388 1387 1385 1383 1381 1379 1377 1376 1375 1375 1374 1373 1373
1393 1393 1394 1394 1393 1393 1393 1393 1393 1393 1392 1392 1391 1391 1390 1390 1390 1389 1389 1389 1388 1387 1386 1385 1384 1385 1385 1384 1383 1382 1381 1379 1377 1375 1373 1371 1370 1370 1369 1368 1367 1367
1389 1389 1389 1389 1389 1389 1389 1389 1389 1388 1388 1388 1387 1386 1386 1385 1385 1384 1384 1384 1383 1382 1381 1380 1379 1379 1380 1378 1377 1377 1375 1374 1372 1369 1367 1365 1365 1364 1363 1363 1362 1361
1386 1386 1385 1386 1385 1385 1385 1384 1384 1384 1383 1383 1382 1382 1381 1380 1380 1379 1379 1379 1378 1377 1376 1375 1374 1374 1374 1373 1372 1371 1370 1368 1366 1364 1362 1360 1360 1359 1358 1357 1356 1356